This demonstration page uses our WeatherBlox Daily Observations layout. Learn more.

Hourly Observations for April 4, 2015

Temp ( °F °C ) Dew Point ( °F °C ) Humidity (%) Winds ( mph kmh ) Pressure ( in mb ) Visibility ( mi km ) Precip ( " mm )
12:15 am 00:15 Clear 36 2 23 -5 60 60 SSW 7 11 30.39 1029 10 16.0934 0 0
12:35 am 00:35 Clear 35 1.5 23 -5.1 62 62 SW 5 7 30.39 1029 10 16.0934 0 0
12:55 am 00:55 Clear 34 1.1 23 -4.8 65 65 SW 7 11 30.39 1029 10 16.0934 0 0
1:15 am 01:15 Clear 34 1.2 23 -4.8 65 65 SSW 6 9 30.39 1029 10 16.0934 0 0
1:35 am 01:35 Clear 35 1.6 23 -5 62 62 SSW 9 15 30.39 1029 10 16.0934 0 0
1:55 am 01:55 Clear 35 1.4 23 -4.8 64 64 SW 9 15 30.39 1029 10 16.0934 0 0
2:15 am 02:15 Clear 35 1.5 24 -4.5 65 65 SW 9 15 30.39 1029 10 16.0934 0 0
2:35 am 02:35 Clear 35 1.7 25 -4.1 66 66 SW 12 19 30.39 1029 10 16.0934 0 0
2:55 am 02:55 Clear 35 1.5 25 -4 67 67 SW 12 19 30.39 1029 10 16.0934 0 0
3:15 am 03:15 Clear 35 1.5 25 -3.7 69 69 SW 12 19 30.39 1029 10 16.0934 0 0
3:35 am 03:35 Clear 36 2.1 26 -3.4 67 67 SW 10 17 30.39 1029 10 16.0934 0 0
3:55 am 03:55 Clear 35 1.7 26 -3.4 69 69 SW 9 15 30.39 1029 10 16.0934 0 0
4:15 am 04:15 Clear 35 1.7 26 -3.3 70 70 SW 9 15 30.39 1029 10 16.0934 0 0
4:35 am 04:35 Clear 34 1.1 26 -3.3 73 73 SW 8 13 30.36 1028 10 16.0934 0 0
4:55 am 04:55 Clear 34 1 26 -3.2 74 74 SW 8 13 30.36 1028 10 16.0934 0 0
5:15 am 05:15 Clear 35 1.4 26 -3.1 72 72 SW 9 15 30.36 1028 10 16.0934 0 0
5:35 am 05:35 Clear 33 0.8 26 -3.2 75 75 SW 7 11 30.36 1028 10 16.0934 0 0
5:55 am 05:55 Clear 33 0.8 27 -3 76 76 SW 8 13 30.36 1028 10 16.0934 0 0
6:15 am 06:15 Clear 33 0.5 26 -3.1 77 77 SW 8 13 30.33 1027 10 16.0934 0 0
6:35 am 06:35 Clear 32 0.1 26 -3.1 79 79 SW 8 13 30.33 1027 10 16.0934 0 0
6:55 am 06:55 Clear 32 0 27 -2.9 81 81 SW 10 17 30.33 1027 10 16.0934 0 0
7:15 am 07:15 Clear 32 -0.1 27 -3 81 81 SW 8 13 30.33 1027 10 16.0934 0 0
7:35 am 07:35 Sunny 32 0.1 27 -2.6 82 82 SW 9 15 30.33 1027 10 16.0934 0 0
7:55 am 07:55 Sunny 33 0.4 28 -2.4 82 82 SW 10 17 30.36 1028 10 16.0934 0 0
8:15 am 08:15 Sunny 35 1.6 28 -2 77 77 SW 8 13 30.33 1027 10 16.0934 0 0
8:35 am 08:35 Sunny 37 2.8 29 -1.7 73 73 SW 8 13 30.33 1027 10 16.0934 0 0
8:55 am 08:55 Sunny 39 4 29 -1.4 68 68 SW 8 13 30.33 1027 10 16.0934 0 0
9:15 am 09:15 Sunny 42 5.5 28 -2 59 59 WSW 13 20 30.3 1026 10 16.0934 0 0
9:35 am 09:35 Sunny 43 6.2 28 -2.1 56 56 SW 15 24 30.27 1025 10 16.0934 0 0
9:55 am 09:55 Sunny 45 7.1 28 -2.5 51 51 WSW 15 24 30.27 1025 10 16.0934 0 0
10:15 am 10:15 Sunny 46 7.9 28 -2.2 49 49 WSW 15 24 30.24 1024 10 16.0934 0 0
10:35 am 10:35 Sunny 48 9 28 -2.5 45 45 SW 15 24 30.24 1024 10 16.0934 0 0
10:55 am 10:55 Sunny 51 10.3 28 -2.1 42 42 SW 18 30 30.24 1024 10 16.0934 0 0
11:15 am 11:15 Sunny 53 11.5 28 -2.4 38 38 SW 16 26 30.21 1023 10 16.0934 0 0
11:35 am 11:35 Sunny 55 12.7 27 -2.9 34 34 SW 18 30 30.21 1023 10 16.0934 0 0
11:55 am 11:55 Sunny 56 13.5 26 -3.4 31 31 SW 17 28 30.21 1023 10 16.0934 0 0
12:15 pm 12:15 Sunny 58 14.4 26 -3.2 30 30 SW 22 35 30.18 1022 10 16.0934 0 0
12:35 pm 12:35 Sunny 59 14.9 25 -3.7 28 28 SSW 17 28 30.15 1021 10 16.0934 0 0
12:55 pm 12:55 Sunny 60 15.5 24 -4.2 26 26 SW 22 35 30.12 1020 10 16.0934 0 0
1:15 pm 13:15 Sunny 61 16 24 -4.5 24 24 SSW 24 39 30.12 1020 10 16.0934 0 0
1:35 pm 13:35 Sunny 61 16.1 22 -5.3 23 23 SW 24 39 30.09 1019 10 16.0934 0 0
1:55 pm 13:55 Sunny 61 16.1 22 -5.6 22 22 SW 26 43 30.09 1019 10 16.0934 0 0
2:15 pm 14:15 Sunny 62 16.9 23 -5.1 22 22 SSW 25 41 30.09 1019 10 16.0934 0 0
2:35 pm 14:35 Sunny 62 16.9 22 -5.4 21 21 SSW 21 33 30.09 1019 10 16.0934 0 0
2:55 pm 14:55 Sunny 63 17.3 22 -5.5 21 21 SSW 26 43 30.03 1017 10 16.0934 0 0
3:15 pm 15:15 Sunny 64 17.8 22 -5.4 20 20 SSW 28 44 30.03 1017 10 16.0934 0 0
3:35 pm 15:35 Sunny 64 17.8 22 -5.6 20 20 SW 20 31 30 1016 7 11.26538 0 0
3:55 pm 15:55 Sunny 65 18.2 22 -5.6 19 19 SW 24 39 30 1016 7 11.26538 0 0
4:15 pm 16:15 Sunny 65 18.1 22 -5.8 19 19 SW 24 39 30 1016 7 11.26538 0 0
4:35 pm 16:35 Sunny 65 18.3 21 -6 19 19 SSW 22 35 29.97 1015 10 16.0934 0 0
4:55 pm 16:55 Sunny 65 18.2 20 -6.6 18 18 SW 23 37 29.97 1015 10 16.0934 0 0
5:15 pm 17:15 Sunny 65 18.4 20 -6.9 17 17 SW 23 37 29.94 1014 10 16.0934 0 0
5:35 pm 17:35 Sunny 65 18.4 20 -6.8 17 17 SSW 24 39 29.94 1014 10 16.0934 0 0
5:55 pm 17:55 Sunny 65 18.1 18 -7.6 17 17 SSW 25 41 29.94 1014 10 16.0934 0 0
6:15 pm 18:15 Sunny 65 18.1 18 -7.8 16 16 S 23 37 29.91 1013 10 16.0934 0 0
6:35 pm 18:35 Sunny 64 18 18 -7.7 17 17 SSW 20 31 29.91 1013 10 16.0934 0 0
6:55 pm 18:55 Sunny 64 17.7 19 -7.5 17 17 S 22 35 29.91 1013 10 16.0934 0 0
7:15 pm 19:15 Sunny 63 17.2 20 -6.9 19 19 S 20 31 29.91 1013 10 16.0934 0 0
7:35 pm 19:35 Sunny 62 16.5 20 -6.5 20 20 S 17 28 29.91 1013 10 16.0934 0 0
7:55 pm 19:55 Sunny 60 15.5 21 -6.2 22 22 S 16 26 29.88 1012 10 16.0934 0 0
8:15 pm 20:15 Clear 58 14.5 21 -6.1 24 24 S 14 22 29.91 1013 10 16.0934 0 0
8:35 pm 20:35 Clear 56 13.4 21 -5.9 26 26 S 13 20 29.91 1013 10 16.0934 0 0
8:55 pm 20:55 Clear 55 12.7 21 -6 27 27 S 10 17 29.91 1013 10 16.0934 0 0
9:15 pm 21:15 Clear 53 11.5 21 -6.2 29 29 S 10 17 29.97 1015 10 16.0934 0 0
9:35 pm 21:35 Clear 51 10.7 21 -6.1 30 30 S 12 19 29.97 1015 10 16.0934 0 0
9:55 pm 21:55 Clear 51 10.6 20 -6.6 30 30 S 10 17 29.97 1015 10 16.0934 0 0
10:15 pm 22:15 Clear 51 10.8 20 -6.7 29 29 S 12 19 29.97 1015 10 16.0934 0 0
10:35 pm 22:35 Clear 50 10.2 20 -6.9 30 30 S 10 17 29.97 1015 10 16.0934 0 0
10:55 pm 22:55 Clear 50 10.2 19 -7 29 29 S 14 22 29.97 1015 10 16.0934 0 0
11:15 pm 23:15 Clear 51 10.4 19 -7.5 28 28 S 13 20 29.97 1015 10 16.0934 0 0
11:35 pm 23:35 Clear 49 9.6 19 -7.5 29 29 S 15 24 29.94 1014 10 16.0934 0 0
11:55 pm 23:55 Clear 49 9.3 18 -7.8 29 29 SSE 15 24 29.94 1014 10 16.0934 0 0

Powered by AerisWeather